GW4572 Weather Reports


Display with metric or nautical units.
time (UTC)temp
F
wind
direction
speed
MPH
gust
MPH
rain 1hr
in
rain 24hr
in
rain mn
in
humidity
%
barometer
mb
20260503040952 33 257 0.0 1.0 0.00 0.00 0.00 81 1017.3
20260503040449 33 257 0.0 0.0 0.00 0.00 0.00 79 1017.3
20260503035946 33 258 1.0 2.0 0.00 0.00 0.00 79 1017.5
20260503035443 33 287 1.0 4.0 0.00 0.00 0.00 79 1017.4
20260503034941 33 279 0.0 1.0 0.00 0.00 0.00 80 1017.3
20260503034433 34 293 0.0 2.0 0.00 0.00 0.00 80 1017.4
20260503033929 34 3 0.0 0.0 0.00 0.00 0.00 82 1017.4
20260503033427 34 333 1.0 1.0 0.00 0.00 0.00 84 1017.7
20260503032925 34 282 0.0 0.0 0.00 0.00 0.00 85 1017.5
20260503032424 34 282 0.0 1.0 0.00 0.00 0.00 85 1017.5
20260503031921 33 282 0.0 0.0 0.00 0.00 0.00 86 1017.5
20260503031418 33 282 0.0 0.0 0.00 0.00 0.00 86 1017.7
20260503030915 33 282 0.0 0.0 0.00 0.00 0.00 85 1017.8
20260503030411 33 282 1.0 1.0 0.00 0.00 0.00 85 1017.5
20260503025908 34 282 0.0 2.0 0.00 0.00 0.00 84 1017.7
20260503025405 34 279 0.0 0.0 0.00 0.00 0.00 84 1017.7
20260503024902 34 280 1.0 2.0 0.00 0.00 0.00 84 1017.5
20260503024359 34 279 0.0 0.0 0.00 0.00 0.00 84 1017.8
20260503023855 34 280 0.0 0.0 0.00 0.00 0.00 84 1017.9
20260503023352 34 279 0.0 0.0 0.00 0.00 0.00 83 1017.7
20260503022849 34 279 0.0 0.0 0.00 0.00 0.00 82 1017.7
20260503022344 35 280 0.0 2.0 0.00 0.00 0.00 82 1017.9
20260503021840 35 279 0.0 0.0 0.00 0.00 0.00 82 1017.9
20260503021337 35 279 0.0 0.0 0.00 0.00 0.00 81 1017.7
20260503020834 35 278 0.0 0.0 0.00 0.00 0.00 81 1017.7
20260503020332 35 278 0.0 2.0 0.00 0.00 0.00 80 1017.7
20260503015828 35 279 0.0 1.0 0.00 0.00 0.00 82 1017.8
20260503015325 35 277 0.0 0.0 0.00 0.00 0.00 82 1017.8
20260503014820 35 276 0.0 2.0 0.00 0.00 0.00 82 1017.5
20260503014319 36 275 0.0 1.0 0.00 0.00 0.00 82 1017.5
20260503013816 36 127 0.0 1.0 0.00 0.00 0.00 82 1017.7
20260503013313 36 336 0.0 0.0 0.00 0.00 0.00 82 1017.5
20260503012810 36 337 0.0 0.0 0.00 0.00 0.00 81 1017.5
20260503012307 36 5 0.0 0.0 0.00 0.00 0.00 82 1017.3
20260503011804 36 323 0.0 1.0 0.00 0.00 0.00 82 1017.4
20260503011301 36 330 0.0 2.0 0.00 0.00 0.00 81 1017.2
20260503010757 37 268 1.0 3.0 0.00 0.00 0.00 80 1017.2
20260503003208 38 78 2.0 2.0 0.00 0.00 0.00 73 1016.7
20260503002705 38 78 2.0 2.0 0.00 0.00 0.00 73 1016.7
20260503002202 38 78 2.0 2.0 0.00 0.00 0.00 73 1016.7
20260503001658 39 98 0.0 2.0 0.00 0.00 0.00 71 1016.5
20260503001154 39 122 0.0 1.0 0.00 0.00 0.00 69 1016.6
20260503000652 39 276 1.0 2.0 0.00 0.00 0.00 67 1016.2
20260503000149 39 260 0.0 1.0 0.00 0.00 0.00 66 1016.5
20260502235646 39 290 0.0 2.0 0.00 0.00 0.00 66 1016.4
20260502235144 40 274 0.0 1.0 0.00 0.00 0.00 65 1016.4
20260502234640 40 288 0.0 3.0 0.00 0.00 0.00 65 1016.2
20260502234137 40 283 1.0 2.0 0.00 0.00 0.00 64 1016.4
20260502233632 40 281 1.0 3.0 0.00 0.00 0.00 63 1016.4
20260502212622 44 244 2.0 4.0 0.00 0.00 0.00 54 1015.7
20260502212120 44 244 2.0 4.0 0.00 0.00 0.00 54 1015.7
20260502211620 44 294 2.0 2.0 0.00 0.00 0.00 55 1015.6
20260502211112 45 302 2.0 3.0 0.00 0.00 0.00 56 1015.7
20260502210609 45 305 5.0 7.0 0.00 0.00 0.00 51 1015.7
20260502210106 44 303 2.0 3.0 0.00 0.00 0.00 53 1015.7
20260502205602 45 261 0.0 1.0 0.00 0.00 0.00 52 1015.5
20260502205059 45 285 3.0 4.0 0.00 0.00 0.00 52 1015.6
20260502204550 45 8 1.0 4.0 0.00 0.00 0.00 49 1015.7
20260502204048 45 289 4.0 6.0 0.00 0.00 0.00 50 1015.7
20260502203544 46 316 3.0 7.0 0.00 0.00 0.00 51 1015.5
20260502203042 45 287 0.0 2.0 0.00 0.00 0.00 52 1015.6
20260502202538 45 285 2.0 4.0 0.00 0.00 0.00 50 1015.6
20260502202037 45 248 1.0 3.0 0.00 0.00 0.00 51 1015.7
20260502201532 46 288 3.0 7.0 0.00 0.00 0.00 47 1015.4
20260502201029 46 293 2.0 4.0 0.00 0.00 0.00 49 1015.8
20260502200525 46 265 2.0 3.0 0.00 0.00 0.00 48 1015.6
20260502200023 46 298 4.0 7.0 0.00 0.00 0.00 48 1015.7
20260502195521 45 260 2.0 7.0 0.00 0.00 0.00 48 1015.8
20260502195015 47 295 2.0 4.0 0.00 0.00 0.00 47 1015.8
20260502194507 46 301 3.0 6.0 0.00 0.00 0.00 49 1015.9
20260502194003 47 309 4.0 6.0 0.00 0.00 0.00 46 1015.8
20260502193500 46 18 1.0 4.0 0.00 0.00 0.00 48 1015.9
20260502192955 49 287 3.0 7.0 0.00 0.00 0.00 48 1016.0
20260502192447 49 261 4.0 6.0 0.00 0.00 0.00 47 1016.0
20260502191944 46 286 2.0 4.0 0.00 0.00 0.00 49 1016.1
20260502191441 46 297 1.0 3.0 0.00 0.00 0.00 53 1016.4
20260502190938 45 297 1.0 1.0 0.00 0.00 0.00 52 1016.1
20260502190435 45 9 0.0 6.0 0.00 0.00 0.00 54 1016.2
20260502185932 46 275 4.0 6.0 0.00 0.00 0.00 50 1016.5
20260502185426 46 252 0.0 0.0 0.00 0.00 0.00 49 1016.4
20260502183020 47 107 2.0 6.0 0.00 0.00 0.00 56 1016.5
20260502182515 47 107 2.0 6.0 0.00 0.00 0.00 56 1016.5
20260502182011 46 280 9.0 10.0 0.00 0.00 0.00 54 1016.7
20260502181509 46 290 4.0 7.0 0.00 0.00 0.00 52 1016.7
20260502181008 44 293 1.0 4.0 0.00 0.00 0.00 56 1016.8
20260502180505 44 283 2.0 3.0 0.00 0.00 0.00 53 1016.8
20260502170424 46 276 3.0 4.0 0.00 0.00 0.00 58 1017.0
20260502160749 44 247 6.0 7.0 0.00 0.00 0.00 57 1017.2
20260502160248 44 247 6.0 7.0 0.00 0.00 0.00 57 1017.2
20260502152217 43 286 2.0 4.0 0.00 0.00 0.00 61 1017.3
20260502151715 42 295 3.0 7.0 0.00 0.00 0.00 61 1017.3
20260502151212 43 306 5.0 6.0 0.00 0.00 0.00 63 1017.3
20260502150709 42 233 2.0 4.0 0.00 0.00 0.00 63 1017.1
20260502150205 42 233 3.0 3.0 0.00 0.00 0.00 61 1017.1
20260502140129 39 267 3.0 9.0 0.00 0.00 0.00 75 1016.9
20260502123410 36 283 4.0 7.0 0.00 0.00 0.00 88 1016.7
20260502122908 36 263 4.0 4.0 0.00 0.00 0.00 88 1017.0
20260502122404 37 282 3.0 4.0 0.00 0.00 0.00 87 1016.9
20260502121902 36 270 2.0 4.0 0.00 0.00 0.00 88 1016.8
20260502121359 36 286 5.0 8.0 0.00 0.00 0.00 88 1016.9
20260502120856 35 313 4.0 6.0 0.00 0.00 0.00 89 1017.1
20260502120352 35 296 5.0 7.0 0.00 0.00 0.00 90 1017.1
20260502115850 35 276 3.0 4.0 0.00 0.00 0.00 91 1017.0
20260502115347 35 285 3.0 3.0 0.00 0.00 0.00 91 1016.9
20260502114843 34 291 3.0 4.0 0.00 0.00 0.00 91 1017.0
20260502114340 34 299 2.0 3.0 0.00 0.00 0.00 91 1016.8
20260502113837 34 300 2.0 6.0 0.00 0.00 0.00 92 1016.9
20260502113334 34 288 2.0 3.0 0.00 0.00 0.00 92 1017.0
20260502112833 34 298 2.0 3.0 0.00 0.00 0.00 93 1017.0
20260502112330 33 304 2.0 4.0 0.00 0.00 0.00 93 1017.1
20260502111827 33 279 1.0 2.0 0.00 0.00 0.00 93 1017.2
20260502111324 33 273 1.0 2.0 0.00 0.00 0.00 93 1017.2
20260502110822 33 276 2.0 2.0 0.00 0.00 0.00 93 1017.3
20260502110320 32 277 1.0 2.0 0.00 0.00 0.00 93 1017.2
20260502105817 32 264 1.0 2.0 0.00 0.00 0.00 93 1017.0
20260502105314 32 270 2.0 2.0 0.00 0.00 0.00 93 1017.1
20260502104812 32 270 1.0 1.0 0.00 0.00 0.00 93 1017.2
20260502104308 32 270 1.0 2.0 0.00 0.00 0.00 93 1017.2
20260502103806 31 277 1.0 2.0 0.00 0.00 0.00 92 1017.1
20260502103303 32 278 1.0 1.0 0.00 0.00 0.00 92 1017.2
20260502102800 32 277 1.0 1.0 0.00 0.00 0.00 92 1017.4
20260502102256 32 276 1.0 1.0 0.00 0.00 0.00 92 1017.3
20260502101755 32 276 1.0 1.0 0.00 0.00 0.00 92 1017.3
20260502101252 32 276 1.0 2.0 0.00 0.00 0.00 91 1017.1
20260502100750 32 278 1.0 1.0 0.00 0.00 0.00 92 1017.4
20260502100249 32 278 0.0 1.0 0.00 0.00 0.00 91 1017.4
20260502091223 32 303 0.0 1.0 0.00 0.00 0.00 90 1017.1
20260502090720 33 303 0.0 2.0 0.00 0.00 0.00 90 1017.2
20260502090217 32 276 0.0 2.0 0.00 0.00 0.00 90 1017.1
20260502071119 35 283 0.0 2.0 0.00 0.00 0.00 90 1016.8
20260502070616 35 277 0.0 1.0 0.00 0.00 0.00 90 1016.8
20260502070114 35 300 0.0 3.0 0.00 0.00 0.00 90 1017.1
20260502065612 35 307 2.0 4.0 0.00 0.00 0.00 90 1017.1
20260502065109 36 276 0.0 2.0 0.00 0.00 0.00 90 1016.7
20260502064608 36 276 0.0 0.0 0.00 0.00 0.00 90 1016.9
20260502064105 36 276 1.0 2.0 0.00 0.00 0.00 89 1017.0
20260502063603 36 271 0.0 2.0 0.00 0.00 0.00 89 1017.0
20260502063100 36 263 0.0 1.0 0.00 0.00 0.00 89 1016.7
20260502062557 37 59 0.0 0.0 0.00 0.00 0.00 90 1016.9
20260502062055 37 291 0.0 2.0 0.00 0.00 0.00 90 1016.9
20260502061553 37 298 0.0 0.0 0.00 0.00 0.00 90 1017.0
20260502061050 37 298 0.0 1.0 0.00 0.00 0.00 90 1016.9
20260502060545 37 260 1.0 3.0 0.00 0.00 0.00 89 1016.9
20260502060042 37 259 1.0 2.0 0.00 0.00 0.00 89 1016.9
20260502055539 37 272 1.0 2.0 0.00 0.00 0.00 90 1016.9
20260502055038 37 281 1.0 3.0 0.00 0.00 0.00 89 1017.3
20260502054536 37 290 2.0 3.0 0.00 0.00 0.00 89 1017.1
20260502054033 37 270 1.0 3.0 0.00 0.00 0.00 90 1017.1
20260502053530 37 280 5.0 6.0 0.00 0.00 0.00 89 1017.4
20260502053028 37 278 2.0 3.0 0.00 0.00 0.00 89 1017.1
20260502052526 37 287 2.0 2.0 0.00 0.00 0.00 89 1017.3
20260502052024 37 291 0.0 3.0 0.00 0.00 0.00 89 1017.1
20260502051522 37 253 1.0 2.0 0.00 0.00 0.00 89 1017.2
20260502051019 37 305 1.0 3.0 0.00 0.00 0.00 89 1017.2
20260502050515 37 299 1.0 3.0 0.00 0.00 0.00 88 1017.3
20260502050012 37 299 2.0 3.0 0.00 0.00 0.00 88 1017.0
20260502045509 38 292 1.0 3.0 0.00 0.00 0.00 88 1017.0
20260502045006 37 14 1.0 6.0 0.00 0.00 0.00 88 1017.2
20260502044502 38 311 1.0 3.0 0.00 0.00 0.00 88 1016.9
20260502043959 38 279 0.0 2.0 0.00 0.00 0.00 89 1017.1
20260502043456 38 273 4.0 4.0 0.00 0.00 0.00 89 1016.9
20260502042955 38 289 1.0 1.0 0.00 0.00 0.00 90 1016.9
20260502042453 38 287 2.0 2.0 0.00 0.00 0.00 90 1017.0
20260502041950 39 267 2.0 4.0 0.00 0.00 0.00 90 1017.0
20260502041448 39 264 2.0 3.0 0.00 0.00 0.00 90 1017.0